TimeEDT,TemperatureF,Dew PointF,Humidity,Sea Level PressureIn,VisibilityMPH,Wind Direction,Wind SpeedMPH,Gust SpeedMPH,PrecipitationIn,Events,Conditions,WindDirDegrees,DateUTC
12:15 AM,75.2,73.4,94,30.15,10.0,SSE,4.6,-,N/A,,Overcast,160,2013-06-25 04:15:00
12:35 AM,75.2,73.4,94,30.15,10.0,SSW,4.6,-,N/A,,Mostly Cloudy,200,2013-06-25 04:35:00
12:55 AM,75.2,73.4,94,30.14,10.0,Calm,Calm,-,N/A,,Clear,0,2013-06-25 04:55:00
1:15 AM,75.2,73.4,94,30.13,10.0,SSE,4.6,-,N/A,,Clear,160,2013-06-25 05:15:00
1:35 AM,75.2,75.2,100,30.13,10.0,South,3.5,-,N/A,,Clear,190,2013-06-25 05:35:00
1:55 AM,75.2,75.2,100,30.13,10.0,Calm,Calm,-,N/A,,Clear,0,2013-06-25 05:55:00
2:15 AM,75.2,73.4,94,30.13,10.0,Calm,Calm,-,N/A,,Clear,0,2013-06-25 06:15:00
2:35 AM,75.2,75.2,100,30.13,10.0,Calm,Calm,-,N/A,,Clear,0,2013-06-25 06:35:00
2:55 AM,75.2,75.2,100,30.12,10.0,Calm,Calm,-,N/A,,Clear,0,2013-06-25 06:55:00
3:15 AM,75.2,75.2,100,30.12,7.0,Calm,Calm,-,N/A,,Clear,0,2013-06-25 07:15:00
3:35 AM,75.2,75.2,100,30.12,7.0,Calm,Calm,-,N/A,,Clear,0,2013-06-25 07:35:00
3:55 AM,75.2,75.2,100,30.12,7.0,Calm,Calm,-,N/A,,Clear,0,2013-06-25 07:55:00
4:15 AM,75.2,75.2,100,30.12,7.0,Calm,Calm,-,N/A,,Clear,0,2013-06-25 08:15:00
4:35 AM,75.2,75.2,100,30.13,10.0,Calm,Calm,-,N/A,,Clear,0,2013-06-25 08:35:00
4:55 AM,75.2,75.2,100,30.13,7.0,Calm,Calm,-,N/A,,Clear,0,2013-06-25 08:55:00
5:15 AM,75.2,75.2,100,30.13,7.0,Calm,Calm,-,N/A,,Clear,0,2013-06-25 09:15:00
5:35 AM,75.2,75.2,100,30.13,7.0,Calm,Calm,-,N/A,,Clear,0,2013-06-25 09:35:00
5:55 AM,75.2,75.2,100,30.13,10.0,Calm,Calm,-,N/A,,Clear,0,2013-06-25 09:55:00
6:15 AM,75.2,75.2,100,30.14,10.0,Calm,Calm,-,N/A,,Clear,0,2013-06-25 10:15:00
6:35 AM,75.2,75.2,100,30.14,10.0,Calm,Calm,-,N/A,,Clear,0,2013-06-25 10:35:00
6:55 AM,77.0,75.2,94,30.14,10.0,Calm,Calm,-,N/A,,Clear,0,2013-06-25 10:55:00
7:15 AM,77.0,75.2,94,30.14,10.0,Calm,Calm,-,N/A,,Clear,0,2013-06-25 11:15:00
7:35 AM,77.0,75.2,94,30.15,10.0,Calm,Calm,-,N/A,,Scattered Clouds,0,2013-06-25 11:35:00
7:55 AM,77.0,75.2,94,30.16,10.0,Calm,Calm,-,N/A,,Scattered Clouds,0,2013-06-25 11:55:00
8:15 AM,77.0,77.0,100,30.16,10.0,Calm,Calm,-,N/A,,Clear,0,2013-06-25 12:15:00
8:35 AM,78.8,77.0,94,30.17,10.0,Calm,Calm,-,N/A,,Scattered Clouds,0,2013-06-25 12:35:00
8:55 AM,78.8,77.0,94,30.17,10.0,Calm,Calm,-,N/A,,Scattered Clouds,0,2013-06-25 12:55:00
9:15 AM,78.8,77.0,94,30.17,10.0,Calm,Calm,-,N/A,,Scattered Clouds,0,2013-06-25 13:15:00
9:35 AM,78.8,77.0,94,30.18,10.0,Calm,Calm,-,N/A,,Scattered Clouds,0,2013-06-25 13:35:00
9:55 AM,80.6,78.8,94,30.17,10.0,Calm,Calm,-,N/A,,Mostly Cloudy,0,2013-06-25 13:55:00
10:15 AM,80.6,78.8,94,30.17,10.0,SSW,4.6,-,N/A,,Mostly Cloudy,210,2013-06-25 14:15:00
10:35 AM,82.4,78.8,89,30.17,10.0,SW,4.6,-,N/A,,Mostly Cloudy,230,2013-06-25 14:35:00
10:55 AM,82.4,78.8,89,30.17,10.0,Calm,Calm,-,N/A,,Mostly Cloudy,0,2013-06-25 14:55:00
11:15 AM,84.2,78.8,84,30.17,10.0,South,4.6,-,N/A,,Mostly Cloudy,170,2013-06-25 15:15:00
11:35 AM,84.2,78.8,84,30.17,10.0,SSW,3.5,-,N/A,,Mostly Cloudy,200,2013-06-25 15:35:00
11:55 AM,84.2,78.8,84,30.17,10.0,SW,3.5,-,N/A,,Mostly Cloudy,230,2013-06-25 15:55:00
12:15 PM,86.0,78.8,79,30.16,10.0,Calm,Calm,-,N/A,,Scattered Clouds,0,2013-06-25 16:15:00
12:35 PM,86.0,78.8,79,30.15,10.0,Calm,Calm,-,N/A,,Mostly Cloudy,0,2013-06-25 16:35:00
12:55 PM,86.0,77.0,74,30.15,10.0,Calm,Calm,-,N/A,,Scattered Clouds,0,2013-06-25 16:55:00
1:15 PM,82.4,78.8,89,30.14,5.0,NW,3.5,-,N/A,,Mostly Cloudy,310,2013-06-25 17:15:00
1:35 PM,80.6,78.8,94,30.14,7.0,NNE,4.6,-,N/A,,Scattered Clouds,20,2013-06-25 17:35:00
1:55 PM,80.6,78.8,94,30.13,10.0,East,4.6,-,N/A,,Clear,90,2013-06-25 17:55:00
2:15 PM,80.6,78.8,94,30.14,10.0,Calm,Calm,-,N/A,,Clear,0,2013-06-25 18:15:00
2:35 PM,80.6,77.0,89,30.14,10.0,SSW,11.5,-,N/A,,Scattered Clouds,200,2013-06-25 18:35:00
2:55 PM,78.8,73.4,83,30.12,10.0,South,8.1,-,N/A,,Clear,180,2013-06-25 18:55:00
3:15 PM,78.8,73.4,83,30.10,10.0,Calm,Calm,-,N/A,,Clear,0,2013-06-25 19:15:00
3:35 PM,78.8,75.2,89,30.10,10.0,Calm,Calm,-,N/A,,Clear,0,2013-06-25 19:35:00
3:55 PM,78.8,73.4,83,30.09,10.0,Calm,Calm,-,N/A,,Clear,0,2013-06-25 19:55:00
4:15 PM,80.6,75.2,84,30.10,10.0,Calm,Calm,-,N/A,,Clear,0,2013-06-25 20:15:00
4:35 PM,80.6,75.2,84,30.12,10.0,Calm,Calm,-,N/A,,Clear,0,2013-06-25 20:35:00
4:55 PM,82.4,75.2,79,30.12,10.0,Calm,Calm,-,N/A,,Scattered Clouds,0,2013-06-25 20:55:00
5:15 PM,82.4,75.2,79,30.12,10.0,NW,3.5,-,N/A,,Scattered Clouds,310,2013-06-25 21:15:00
5:35 PM,80.6,75.2,84,30.12,10.0,NNW,9.2,-,N/A,,Clear,330,2013-06-25 21:35:00
5:55 PM,78.8,75.2,89,30.12,10.0,NNW,9.2,-,N/A,,Clear,330,2013-06-25 21:55:00
6:15 PM,77.0,75.2,94,30.10,5.0,Calm,Calm,-,N/A,,Mostly Cloudy,0,2013-06-25 22:15:00
6:35 PM,77.0,75.2,94,30.09,4.0,Calm,Calm,-,N/A,,Overcast,0,2013-06-25 22:35:00
6:55 PM,77.0,75.2,94,30.08,7.0,Calm,Calm,-,N/A,,Overcast,0,2013-06-25 22:55:00
7:15 PM,77.0,75.2,94,30.08,10.0,Calm,Calm,-,N/A,,Scattered Clouds,0,2013-06-25 23:15:00
7:35 PM,75.2,75.2,100,30.08,10.0,West,5.8,-,N/A,,Clear,280,2013-06-25 23:35:00
7:55 PM,75.2,75.2,100,30.08,10.0,SW,4.6,-,N/A,,Clear,230,2013-06-25 23:55:00
8:15 PM,75.2,75.2,100,30.08,10.0,Calm,Calm,-,N/A,,Clear,0,2013-06-26 00:15:00
8:35 PM,75.2,75.2,100,30.08,10.0,South,4.6,-,N/A,,Clear,190,2013-06-26 00:35:00
8:55 PM,75.2,75.2,100,30.09,10.0,SW,3.5,-,N/A,,Clear,220,2013-06-26 00:55:00
9:15 PM,75.2,73.4,94,30.10,10.0,Calm,Calm,-,N/A,,Clear,0,2013-06-26 01:15:00
9:35 PM,75.2,73.4,94,30.11,10.0,Calm,Calm,-,N/A,,Clear,0,2013-06-26 01:35:00
9:55 PM,75.2,73.4,94,30.10,10.0,Calm,Calm,-,N/A,,Clear,0,2013-06-26 01:55:00
10:15 PM,75.2,75.2,100,30.11,10.0,Calm,Calm,-,N/A,,Clear,0,2013-06-26 02:15:00
10:35 PM,75.2,73.4,94,30.09,7.0,SE,3.5,-,N/A,,Clear,140,2013-06-26 02:35:00
10:55 PM,75.2,73.4,94,30.09,10.0,Calm,Calm,-,N/A,,Clear,0,2013-06-26 02:55:00
11:15 PM,75.2,73.4,94,30.09,10.0,ESE,3.5,-,N/A,,Clear,120,2013-06-26 03:15:00
11:35 PM,73.4,73.4,100,30.10,10.0,Calm,Calm,-,N/A,,Clear,0,2013-06-26 03:35:00
11:55 PM,73.4,73.4,100,30.10,10.0,Calm,Calm,-,N/A,,Clear,0,2013-06-26 03:55:00